�������l�o���
Date,Time,MP-1(��Sv/h),MP-2(��Sv/h),MP-3(��Sv/h),MP-4(��Sv/h),MP-5(��Sv/h),MP-6(��Sv/h),MP-7(��Sv/h),MP-8(��Sv/h),����,����(m/s),���J
2019/03/21,00:00,0.774,1.129,0.782,1.443,1.047,0.442,0.780,0.739,��쐼,5.5,��
2019/03/21,00:10,0.776,1.130,0.782,1.444,1.046,0.443,0.778,0.740,��쐼,4.7,��
2019/03/21,00:20,0.775,1.131,0.781,1.446,1.048,0.442,0.779,0.737,��쐼,5.8,��
2019/03/21,00:30,0.775,1.130,0.783,1.444,1.047,0.442,0.781,0.738,��,6.8,��
2019/03/21,00:40,0.775,1.132,0.781,1.444,1.047,0.443,0.781,0.738,��,6.4,��
2019/03/21,00:50,0.775,1.129,0.780,1.444,1.048,0.443,0.780,0.738,��,7.0,��
2019/03/21,01:00,0.778,1.130,0.781,1.445,1.044,0.443,0.782,0.739,��,6.5,��
2019/03/21,01:10,0.775,1.132,0.780,1.446,1.045,0.442,0.781,0.739,��,6.3,��
2019/03/21,01:20,0.776,1.132,0.781,1.444,1.046,0.441,0.780,0.739,��,6.3,��
2019/03/21,01:30,0.778,1.130,0.782,1.448,1.045,0.442,0.781,0.739,��,7.0,��
2019/03/21,01:40,0.776,1.131,0.781,1.444,1.046,0.442,0.780,0.739,��,7.5,��
2019/03/21,01:50,0.776,1.131,0.780,1.448,1.047,0.442,0.783,0.739,��쐼,6.9,��
2019/03/21,02:00,0.777,1.140,0.781,1.445,1.050,0.441,0.782,0.739,��,6.6,��
2019/03/21,02:10,0.774,1.140,0.782,1.446,1.044,0.441,0.781,0.737,��,6.9,��
2019/03/21,02:20,0.774,1.141,0.783,1.446,1.046,0.441,0.780,0.738,��,7.6,��
2019/03/21,02:30,0.773,1.142,0.782,1.448,1.046,0.442,0.781,0.738,��,7.7,��
2019/03/21,02:40,0.776,1.142,0.783,1.450,1.049,0.441,0.781,0.738,��,4.6,��
2019/03/21,02:50,0.775,1.142,0.783,1.447,1.045,0.441,0.781,0.739,��,4.7,��
2019/03/21,03:00,0.777,1.143,0.785,1.445,1.047,0.441,0.779,0.739,��,6.4,��
2019/03/21,03:10,0.776,1.142,0.782,1.446,1.045,0.443,0.781,0.740,��,6.4,��
2019/03/21,03:20,0.777,1.144,0.784,1.445,1.048,0.442,0.782,0.740,��,8.0,��
2019/03/21,03:30,0.775,1.142,0.783,1.443,1.045,0.441,0.782,0.739,��,7.3,��
2019/03/21,03:40,0.777,1.144,0.784,1.447,1.048,0.442,0.781,0.738,��,6.9,��
2019/03/21,03:50,0.776,1.142,0.784,1.444,1.048,0.442,0.782,0.738,��,8.0,��
2019/03/21,04:00,0.775,1.141,0.784,1.444,1.047,0.443,0.781,0.740,��,6.6,��
2019/03/21,04:10,0.775,1.141,0.784,1.446,1.046,0.441,0.781,0.739,��,6.5,��
2019/03/21,04:20,0.774,1.140,0.784,1.447,1.046,0.442,0.781,0.739,��,7.0,��
2019/03/21,04:30,0.776,1.144,0.783,1.447,1.047,0.444,0.783,0.739,��,8.5,��
2019/03/21,04:40,0.776,1.143,0.781,1.445,1.047,0.442,0.781,0.739,��,6.7,��
2019/03/21,04:50,0.774,1.140,0.782,1.442,1.046,0.442,0.782,0.740,��쐼,6.6,��
2019/03/21,05:00,0.777,1.141,0.784,1.446,1.047,0.442,0.780,0.739,��쐼,5.8,��
2019/03/21,05:10,0.774,1.140,0.783,1.446,1.047,0.441,0.782,0.737,��쐼,5.8,��
2019/03/21,05:20,0.775,1.143,0.782,1.446,1.047,0.442,0.781,0.738,��,6.3,��
2019/03/21,05:30,0.775,1.143,0.784,1.446,1.045,0.442,0.780,0.739,��,7.4,��
2019/03/21,05:40,0.778,1.142,0.784,1.445,1.048,0.440,0.779,0.738,��쓌,7.0,��
2019/03/21,05:50,0.774,1.142,0.782,1.445,1.047,0.441,0.782,0.739,��,6.6,��
2019/03/21,06:00,0.775,1.143,0.783,1.447,1.047,0.442,0.781,0.739,��쓌,6.1,��
2019/03/21,06:10,0.777,1.141,0.783,1.444,1.046,0.442,0.781,0.738,��,3.6,��
2019/03/21,06:20,0.777,1.142,0.783,1.444,1.046,0.442,0.783,0.737,��,5.1,��
2019/03/21,06:30,0.776,1.140,0.784,1.447,1.049,0.442,0.781,0.738,��,5.5,��
2019/03/21,06:40,0.776,1.144,0.782,1.446,1.047,0.442,0.781,0.741,��,6.2,��
2019/03/21,06:50,0.774,1.142,0.784,1.445,1.048,0.443,0.784,0.739,��,6.7,��
2019/03/21,07:00,0.778,1.143,0.784,1.447,1.047,0.443,0.782,0.738,��,7.6,��
2019/03/21,07:10,0.775,1.139,0.783,1.444,1.045,0.442,0.781,0.741,��,7.8,��
2019/03/21,07:20,0.776,1.141,0.784,1.448,1.049,0.441,0.782,0.739,��,8.4,��
2019/03/21,07:30,0.777,1.140,0.781,1.444,1.049,0.444,0.780,0.740,��,8.1,��
2019/03/21,07:40,0.776,1.140,0.783,1.447,1.048,0.443,0.782,0.740,��,7.3,��
2019/03/21,07:50,0.777,1.142,0.782,1.447,1.046,0.443,0.781,0.741,��,8.6,��
2019/03/21,08:00,0.775,1.144,0.782,1.447,1.047,0.443,0.781,0.739,��쐼,7.8,�L
2019/03/21,08:10,0.777,1.142,0.785,1.445,1.048,0.443,0.783,0.740,��쐼,9.3,�L
2019/03/21,08:20,0.779,1.142,0.784,1.447,1.047,0.442,0.782,0.741,��쐼,8.4,�L
2019/03/21,08:30,0.778,1.143,0.785,1.448,1.050,0.445,0.781,0.742,��쐼,6.3,�L
2019/03/21,08:40,0.781,1.144,0.787,1.447,1.050,0.446,0.782,0.741,��,6.6,�L
2019/03/21,08:50,0.780,1.145,0.786,1.450,1.047,0.447,0.778,0.742,��,9.8,�L
2019/03/21,09:00,0.780,1.146,0.786,1.448,1.048,0.447,0.776,0.740,��,9.5,�L
2019/03/21,09:10,0.780,1.144,0.788,1.450,1.049,0.448,0.777,0.742,��,8.8,�L
2019/03/21,09:20,0.781,1.145,0.786,1.448,1.049,0.447,0.775,0.742,��,9.9,�L
2019/03/21,09:30,0.778,1.144,0.787,1.447,1.049,0.448,0.776,0.740,��,7.5,��
2019/03/21,09:40,0.777,1.144,0.785,1.447,1.048,0.446,0.776,0.738,��,6.1,��
2019/03/21,09:50,0.777,1.143,0.786,1.449,1.048,0.447,0.776,0.740,��,7.4,�L
2019/03/21,10:00,0.777,1.142,0.785,1.450,1.046,0.445,0.775,0.741,��,8.6,�L
2019/03/21,10:10,0.778,1.142,0.784,1.447,1.048,0.446,0.775,0.739,��,9.6,��
2019/03/21,10:20,0.778,1.145,0.784,1.449,1.049,0.444,0.776,0.739,��,11.3,��
2019/03/21,10:30,0.778,1.143,0.787,1.446,1.047,0.443,0.777,0.740,��쐼,10.7,��
2019/03/21,10:40,0.777,1.141,0.786,1.447,1.047,0.444,0.776,0.740,��,11.1,�L
2019/03/21,10:50,0.775,1.141,0.785,1.448,1.045,0.442,0.773,0.738,��,10.5,�L
2019/03/21,11:00,0.773,1.140,0.783,1.446,1.045,0.443,0.773,0.736,��,10.6,�L
2019/03/21,11:10,0.775,1.142,0.784,1.448,1.045,0.443,0.771,0.737,��,9.5,�L
2019/03/21,11:20,0.775,1.142,0.784,1.449,1.046,0.444,0.774,0.738,��,10.2,�L
2019/03/21,11:30,0.776,1.140,0.785,1.446,1.046,0.445,0.773,0.737,��,10.0,�L
2019/03/21,11:40,0.777,1.142,0.784,1.449,1.045,0.445,0.777,0.740,��,10.2,�L
2019/03/21,11:50,0.777,1.140,0.784,1.446,1.043,0.444,0.781,0.739,��,11.3,��
2019/03/21,12:00,0.776,1.141,0.785,1.449,1.045,0.445,0.778,0.738,��,8.6,��
2019/03/21,12:10,0.776,1.141,0.783,1.449,1.047,0.444,0.776,0.739,��,9.0,��
2019/03/21,12:20,0.776,1.139,0.784,1.451,1.044,0.445,0.777,0.737,��쓌,12.1,��
2019/03/21,12:30,0.776,1.140,0.785,1.446,1.045,0.443,0.775,0.738,��,11.3,��
2019/03/21,12:40,0.775,1.142,0.787,1.448,1.043,0.444,0.775,0.739,��쓌,11.7,��
2019/03/21,12:50,0.774,1.141,0.783,1.448,1.043,0.446,0.780,0.737,��쓌,11.9,��
2019/03/21,13:00,0.776,1.140,0.784,1.446,1.044,0.443,0.782,0.736,��,11.7,��
2019/03/21,13:10,0.775,1.141,0.783,1.446,1.047,0.444,0.781,0.738,��쓌,14.1,�L
2019/03/21,13:20,0.775,1.139,0.784,1.449,1.044,0.445,0.782,0.737,��,12.7,��
2019/03/21,13:30,0.775,1.141,0.782,1.448,1.045,0.445,0.782,0.736,��,13.3,��
2019/03/21,13:40,0.776,1.142,0.783,1.450,1.047,0.445,0.783,0.736,��,13.5,��
2019/03/21,13:50,0.777,1.140,0.784,1.449,1.044,0.443,0.783,0.739,��,14.9,��
2019/03/21,14:00,0.777,1.140,0.785,1.449,1.046,0.446,0.781,0.737,��,11.9,��
2019/03/21,14:10,0.776,1.139,0.784,1.450,1.046,0.445,0.784,0.737,��,13.8,��
2019/03/21,14:20,0.775,1.139,0.782,1.448,1.046,0.446,0.782,0.737,��,14.4,��
2019/03/21,14:30,0.775,1.140,0.784,1.449,1.045,0.445,0.781,0.738,��,14.9,��
2019/03/21,14:40,0.775,1.139,0.783,1.449,1.047,0.444,0.782,0.737,��,13.0,��
2019/03/21,14:50,0.775,1.139,0.783,1.448,1.044,0.445,0.781,0.737,��,13.5,��
2019/03/21,15:00,0.775,1.142,0.782,1.449,1.047,0.445,0.782,0.738,��,14.9,��
2019/03/21,15:10,0.776,1.143,0.781,1.447,1.048,0.445,0.783,0.737,��,13.5,��
2019/03/21,15:20,0.776,1.143,0.784,1.446,1.046,0.445,0.783,0.738,��,12.8,��
2019/03/21,15:30,0.776,1.140,0.782,1.449,1.046,0.446,0.782,0.739,��,12.7,��
2019/03/21,15:40,0.777,1.141,0.781,1.448,1.047,0.446,0.783,0.737,��,10.5,��
2019/03/21,15:50,0.776,1.139,0.784,1.450,1.047,0.447,0.783,0.738,��,13.1,��
2019/03/21,16:00,0.777,1.141,0.784,1.448,1.046,0.447,0.783,0.739,��,12.2,��
2019/03/21,16:10,0.775,1.141,0.783,1.448,1.047,0.448,0.783,0.738,��,13.0,��
2019/03/21,16:20,0.777,1.139,0.784,1.450,1.045,0.445,0.783,0.737,��,12.4,��
2019/03/21,16:30,0.775,1.141,0.783,1.451,1.044,0.446,0.784,0.739,��,12.2,��
2019/03/21,16:40,0.776,1.144,0.782,1.449,1.046,0.447,0.784,0.740,��,11.3,��
2019/03/21,16:50,0.776,1.142,0.785,1.450,1.047,0.447,0.784,0.740,��,10.2,��
2019/03/21,17:00,0.776,1.146,0.782,1.449,1.046,0.449,0.783,0.741,��,10.6,��
2019/03/21,17:10,0.774,1.143,0.784,1.450,1.048,0.448,0.784,0.740,��,10.2,��
2019/03/21,17:20,0.778,1.145,0.784,1.450,1.047,0.447,0.782,0.740,��,11.7,��
2019/03/21,17:30,0.775,1.142,0.783,1.449,1.046,0.447,0.784,0.740,��쐼,9.0,��
2019/03/21,17:40,0.776,1.143,0.784,1.448,1.047,0.447,0.783,0.740,��,12.7,��
2019/03/21,17:50,0.777,1.143,0.783,1.449,1.047,0.447,0.783,0.740,��,10.9,��
2019/03/21,18:00,0.777,1.142,0.786,1.450,1.046,0.447,0.784,0.740,��,11.0,��
2019/03/21,18:10,0.777,1.140,0.784,1.448,1.045,0.447,0.783,0.741,��,11.9,��
2019/03/21,18:20,0.777,1.142,0.784,1.447,1.047,0.448,0.783,0.740,��,11.6,��
2019/03/21,18:30,0.777,1.144,0.784,1.451,1.047,0.447,0.783,0.741,��쐼,10.8,��
2019/03/21,18:40,0.778,1.144,0.787,1.450,1.046,0.447,0.783,0.742,��쐼,11.1,��
2019/03/21,18:50,0.779,1.145,0.789,1.450,1.046,0.447,0.784,0.740,��쐼,11.6,��
2019/03/21,19:00,0.777,1.141,0.787,1.450,1.047,0.448,0.786,0.742,��,10.7,��
2019/03/21,19:10,0.777,1.144,0.789,1.449,1.047,0.448,0.784,0.742,��쐼,10.2,��
2019/03/21,19:20,0.777,1.143,0.788,1.450,1.046,0.447,0.784,0.741,��쐼,11.3,��
2019/03/21,19:30,0.779,1.144,0.785,1.448,1.047,0.448,0.783,0.742,��쐼,11.6,��
2019/03/21,19:40,0.779,1.146,0.785,1.449,1.048,0.449,0.784,0.742,��쐼,10.7,��
2019/03/21,19:50,0.778,1.146,0.787,1.450,1.047,0.446,0.784,0.742,��쐼,10.7,��
2019/03/21,20:00,0.779,1.147,0.785,1.450,1.047,0.447,0.786,0.742,��쐼,10.2,��
2019/03/21,20:10,0.778,1.141,0.785,1.450,1.047,0.448,0.782,0.742,��쐼,10.0,��
2019/03/21,20:20,0.779,1.143,0.788,1.448,1.046,0.446,0.784,0.741,��쐼,10.0,��
2019/03/21,20:30,0.776,1.143,0.787,1.450,1.049,0.446,0.783,0.740,��쐼,10.5,��
2019/03/21,20:40,0.779,1.144,0.788,1.451,1.046,0.449,0.784,0.742,��쐼,9.2,��
2019/03/21,20:50,0.777,1.142,0.787,1.448,1.046,0.449,0.784,0.742,��쐼,8.9,��
2019/03/21,21:00,0.776,1.145,0.788,1.448,1.047,0.450,0.784,0.742,�쐼,8.1,��
2019/03/21,21:10,0.777,1.145,0.788,1.447,1.047,0.447,0.784,0.744,�쐼,8.3,��
2019/03/21,21:20,0.776,1.144,0.788,1.449,1.047,0.447,0.783,0.741,�쐼,9.1,��
2019/03/21,21:30,0.776,1.142,0.788,1.452,1.047,0.447,0.783,0.741,���쐼,9.1,��
2019/03/21,21:40,0.779,1.139,0.789,1.451,1.046,0.447,0.784,0.742,���쐼,7.6,��
2019/03/21,21:50,0.780,1.141,0.786,1.450,1.046,0.447,0.784,0.743,��,7.0,��
2019/03/21,22:00,0.779,1.139,0.787,1.450,1.046,0.447,0.784,0.742,���쐼,5.8,��
2019/03/21,22:10,0.777,1.143,0.786,1.449,1.047,0.448,0.783,0.742,���쐼,4.8,��
2019/03/21,22:20,0.778,1.142,0.787,1.450,1.047,0.448,0.783,0.742,��,6.8,��
2019/03/21,22:30,0.780,1.145,0.788,1.450,1.047,0.447,0.783,0.743,��,7.9,��
2019/03/21,22:40,0.779,1.140,0.789,1.451,1.049,0.449,0.782,0.742,��,10.0,��
2019/03/21,22:50,0.779,1.143,0.787,1.452,1.049,0.447,0.785,0.742,���k��,10.2,��
2019/03/21,23:00,0.782,1.144,0.788,1.451,1.048,0.448,0.783,0.744,��,9.6,��
2019/03/21,23:10,0.780,1.142,0.788,1.452,1.050,0.448,0.784,0.743,��,9.1,��
2019/03/21,23:20,0.781,1.141,0.788,1.450,1.052,0.448,0.785,0.742,��,11.6,��
2019/03/21,23:30,0.779,1.142,0.788,1.452,1.048,0.447,0.784,0.744,��,10.5,��
2019/03/21,23:40,0.780,1.142,0.788,1.451,1.049,0.446,0.784,0.743,��,10.5,��
2019/03/21,23:50,0.780,1.140,0.789,1.451,1.048,0.446,0.785,0.742,���k��,12.7,��
